Springfield, VT

6:20 PM EDT on July 21, 2017 (GMT -0400)
Hartness State

Weather History for KVSF - October, 2014

Change the Weather History Date:

Wednesday, October 22, 2014

  Actual Average Record
Temperature  
Mean Temperature 49 °F 45 °F  
Max Temperature 51 °F 56 °F 81 °F (2007)
Min Temperature 47 °F 34 °F 24 °F (2002)
Degree Days  
Heating Degree Days 16 20  
Month to date heating degree days 272 365  
Since 1 July heating degree days 488 617  
Cooling Degree Days 0 0  
Month to date cooling degree days 5 0  
Year to date cooling degree days 282 344  
Moisture  
Dew Point 45 °F    
Average Humidity 85    
Maximum Humidity 86    
Minimum Humidity 83    
Precipitation  
Precipitation 0.31 in 0.15 in 0.43 in (2005)
Month to date precipitation 3.61 3.38  
Year to date precipitation 32.45 35.51  
Sea Level Pressure  
Sea Level Pressure 30.06 in    
Wind  
Wind Speed 7 mph (NNE)    
Max Wind Speed 14 mph    
Max Gust Speed 23 mph    
Visibility 6 miles    
Events Rain    
T = Trace of Precipitation, MM = Missing Value Source: NWS Daily Summary

Daily Weather History Graph

Daily Weather History Graph

Search for Another Location

Airport or City:

Trip Planner

Search our weather history database for the weather conditions in past years. The results will help you decide how hot, cold, wet, or windy it might be!

Date:

Astronomy

Oct. 22, 2014 Rise Set
Actual Time 7:12 AM EDT 5:55 PM EDT
Civil Twilight 6:43 AM EDT 6:24 PM EDT
Nautical Twilight 6:10 AM EDT 6:58 PM EDT
Astronomical Twilight 5:37 AM EDT 7:31 PM EDT
Moon 5:48 AM EDT (10/22) 5:22 PM EDT (10/22)
Length of Visible Light 11h 41m
Length of Day
10h 43m
Waning Crescent, 2% of the Moon is Illuminated
Oct 22
Waning Crescent
Oct 23
New
Oct 30
First Quarter
Nov 6
Full
Nov 14
Last Quarter

Hourly Weather History & Observations

Time (EDT) Temp. Dew Point Humidity Pressure Visibility Wind Dir Wind Speed Gust Speed Precip Events Conditions
12:54 AM 48.9 °F 45.0 °F 86% 30.06 in 10.0 mi NE 4.6 mph - N/A   Overcast
1:54 AM 48.9 °F 45.0 °F 86% 30.06 in 10.0 mi Calm Calm - N/A   Overcast
2:54 AM 48.9 °F 44.1 °F 83% 30.06 in 10.0 mi Variable 5.8 mph - N/A   Overcast
3:54 AM 48.9 °F 44.1 °F 83% 30.06 in 10.0 mi NNE 6.9 mph - N/A   Overcast
4:51 AM 48.2 °F 44.6 °F 87% 30.07 in 2.5 mi Variable 3.5 mph - 0.00 in Rain Light Rain
4:54 AM 48.0 °F 45.0 °F 89% 30.08 in 3.0 mi Variable 3.5 mph - 0.00 in Rain Light Rain
5:54 AM 48.0 °F 45.0 °F 89% 30.10 in 7.0 mi North 4.6 mph - 0.01 in   Overcast
6:54 AM 48.0 °F 45.0 °F 89% 30.10 in 10.0 mi NNE 4.6 mph - N/A   Overcast
7:54 AM 48.0 °F 45.0 °F 89% 30.12 in 6.0 mi ENE 3.5 mph - N/A   Overcast
8:54 AM 48.0 °F 45.0 °F 89% 30.14 in 4.0 mi North 5.8 mph - 0.00 in   Overcast
9:54 AM 48.9 °F 45.0 °F 86% 30.14 in 10.0 mi NNE 5.8 mph - N/A   Overcast
10:54 AM 50.0 °F 45.0 °F 83% 30.14 in 6.0 mi NNE 4.6 mph - N/A   Haze
11:06 AM 48.9 °F 45.0 °F 86% 30.13 in 1.8 mi Variable 3.5 mph - 0.00 in Rain Light Rain
11:25 AM 48.9 °F 46.0 °F 90% 30.12 in 3.0 mi Variable 5.8 mph - 0.01 in Rain Light Rain
11:32 AM 48.9 °F 46.0 °F 90% 30.12 in 1.8 mi Variable 4.6 mph - 0.02 in Rain Light Rain
11:54 AM 48.9 °F 46.0 °F 90% 30.12 in 2.5 mi Variable 3.5 mph - 0.04 in Rain Rain
12:26 PM 50.0 °F 46.0 °F 86% 30.10 in 4.0 mi Variable 3.5 mph - 0.04 in Rain Light Rain
12:54 PM 50.0 °F 46.9 °F 89% 30.09 in 7.0 mi Variable 4.6 mph - 0.05 in Rain Light Rain
1:54 PM 51.1 °F 46.9 °F 86% 30.07 in 10.0 mi North 9.2 mph 16.1 mph 0.00 in Rain Light Rain
2:54 PM 51.1 °F 46.9 °F 86% 30.06 in 6.0 mi NNE 8.1 mph - 0.01 in Rain Light Rain
3:06 PM 50.0 °F 46.9 °F 89% 30.05 in 2.5 mi Variable 5.8 mph - 0.01 in Rain Light Rain
3:37 PM 50.0 °F 46.9 °F 89% 30.04 in 3.0 mi Variable 4.6 mph - 0.01 in Rain Light Rain
3:54 PM 50.0 °F 46.9 °F 89% 30.05 in 6.0 mi Variable 4.6 mph - 0.01 in Rain Light Rain
4:38 PM 51.1 °F 46.0 °F 83% 30.04 in 5.0 mi North 10.4 mph 21.9 mph 0.01 in Rain Light Rain
4:51 PM 51.8 °F 46.4 °F 82% 30.03 in 6.0 mi North 9.2 mph - 0.01 in Rain Light Rain
4:54 PM 50.0 °F 46.0 °F 86% 30.05 in 6.0 mi North 8.1 mph - 0.01 in Rain Light Rain
5:54 PM 50.0 °F 45.0 °F 83% 30.04 in 10.0 mi North 8.1 mph - 0.01 in   Overcast
6:54 PM 48.9 °F 45.0 °F 86% 30.04 in 5.0 mi NNE 9.2 mph 18.4 mph 0.02 in Rain Light Rain
7:08 PM 48.0 °F 45.0 °F 89% 30.03 in 2.5 mi North 8.1 mph 17.3 mph 0.01 in Rain Light Rain
7:52 PM 48.2 °F 44.6 °F 87% 30.01 in 3.0 mi NNE 8.1 mph 21.9 mph 0.09 in Rain Rain
7:54 PM 48.0 °F 44.1 °F 86% 30.03 in 3.0 mi NNE 8.1 mph 21.9 mph 0.10 in Rain Rain
8:02 PM 46.9 °F 44.1 °F 90% 30.02 in 2.5 mi NNE 8.1 mph 18.4 mph 0.00 in Rain Light Rain
8:39 PM 46.9 °F 44.1 °F 90% 30.02 in 8.0 mi Variable 6.9 mph - 0.03 in Rain Light Rain
8:54 PM 46.9 °F 44.1 °F 90% 30.02 in 10.0 mi Variable 6.9 mph 16.1 mph 0.03 in   Overcast
9:54 PM 48.0 °F 43.0 °F 83% 30.01 in 9.0 mi NNE 11.5 mph 18.4 mph 0.00 in Rain Light Rain
10:54 PM 48.0 °F 44.1 °F 86% 29.98 in 9.0 mi North 9.2 mph - 0.01 in Rain Light Rain
11:54 PM 48.9 °F 44.1 °F 83% 29.95 in 10.0 mi North 9.2 mph - 0.00 in Rain Light Rain